Location: Unspecified
(0.0000°N, 0.0000°E)
Time: 10:01:08
(UTC+00:00)

Hubble Space Telescope - Visible Passes

Search period start: 20 May 2018 00:00
Search period end: 30 May 2018 00:00
Orbit: 537 x 541 km, 28.5° (Epoch: 19 May)

Date Brightness Start Highest point End Pass type
(mag) Time Alt. Az. Time Alt. Az. Time Alt. Az.
20 May 1.1 04:36:01 42° WNW 04:36:59 53° NNW 04:41:02 10° NE visible
21 May 1.6 04:26:24 36° NW 04:26:40 37° NNW 04:30:31 10° NE visible
22 May 2.3 04:16:44 26° NNW 04:16:44 26° NNW 04:19:52 10° NNE visible
23 May 2.9 04:07:01 18° N 04:07:01 18° N 04:09:05 10° NNE visible
24 May 3.4 03:57:16 12° N 03:57:16 12° N 03:58:03 10° N visible
